Location: Unspecified
(33.2407°S, 0.0000°E)
Time: 00:45:02
(UTC+00:00)

Hubble Space Telescope - Visible Passes

Search period start: 24 May 2019 00:00
Search period end: 03 June 2019 00:00
Orbit: 537 x 540 km, 28.5° (Epoch: 23 May)

Date Brightness Start Highest point End Pass type
(mag) Time Alt. Az. Time Alt. Az. Time Alt. Az.
24 May 2.3 04:43:23 30° NNE 04:43:23 30° NNE 04:46:13 10° NE visible
24 May 3.0 06:20:43 10° WNW 06:23:09 15° NNW 06:25:34 10° NNE visible
25 May 2.8 04:33:32 22° NNE 04:33:32 22° NNE 04:35:32 10° NE visible
25 May 3.2 06:10:52 10° NW 06:12:32 12° NNW 06:14:11 10° N visible
26 May 3.3 04:23:42 16° NNE 04:23:42 16° NNE 04:24:48 10° NE visible
27 May 3.8 04:13:52 11° NE 04:13:52 11° NE 04:13:59 10° NE visible
